Simultaneous Nadir Overpasses (SNOs) Predictions

Prediction of SNOs between AQUA and NOAA-19 Satellite Orbit:

Table of predicted SNOs for the next 14.0 days since TLE Epoch: 1/11/2014
Index Date (AQUA) Time (AQUA) Lat,Lon (AQUA) SZA (AQUA ) Date (NOAA-19) Time (NOAA-19) Lat,Lon (NOAA-19) SZA (NOAA-19 ) Distance(km) Time Diff (sec)
1 01/11/2014 16:07:46 -72.14, 115.51 86.17 01/11/2014 16:06:57 -72.15, 115.47 86.15 1.49 49
2 01/11/2014 16:56:25 69.49, -72.75 91.11 01/11/2014 16:57:13 69.49, -72.76 91.12 0.24 48
3 01/13/2014 20:51:59 -72.13, 44.48 86.54 01/13/2014 20:51:01 -72.12, 44.53 86.55 1.85 58
4 01/13/2014 21:40:44 69.81,-144.24 91.07 01/13/2014 21:41:24 69.81,-144.24 91.07 0.19 40
5 01/16/2014 01:36:15 -72.31, -26.89 86.75 01/16/2014 01:35:09 -72.30, -26.83 86.75 2.56 66
6 01/16/2014 02:24:57 69.83, 144.68 90.70 01/16/2014 02:25:29 69.82, 144.74 90.69 2.51 32
7 01/18/2014 06:20:34 -72.68, -98.64 86.78 01/18/2014 06:19:21 -72.68, -98.62 86.77 0.65 73
8 01/18/2014 07:09:16 70.22, 73.08 90.67 01/18/2014 07:09:41 70.21, 73.13 90.66 2.33 25
9 01/20/2014 11:08:08 -81.25, 147.83 75.94 01/20/2014 11:06:55 -80.72, 146.49 76.12 63.31 73
10 01/20/2014 11:53:38 70.82, 1.15 90.81 01/20/2014 11:53:57 70.82, 1.13 90.82 0.74 19
11 01/22/2014 16:37:55 71.17, -70.44 90.69 01/22/2014 16:38:08 71.17, -70.48 90.69 1.31 13




NCC Satellite Simultaneous Nadir Overpasses (SNOs) Prediction Service
